Time,TemperatureF,DewpointF,PressureIn,WindDirection,WindDirectionDegrees,WindSpeedMPH,WindSpeedGustMPH,Humidity,HourlyPrecipIn,Conditions,Clouds,dailyrainin,SoftwareType,DateUTC
2013-02-14 00:01:00,29.0,10.0,30.04,West,275,17.0,41.0,44,0.00,,,0.00,,2013-02-14 07:01:00,
2013-02-14 00:11:00,29.0,10.0,30.04,West,275,17.0,41.0,44,0.00,,,0.00,,2013-02-14 07:11:00,
2013-02-14 00:21:00,28.0,8.0,30.04,West,280,16.0,45.0,43,0.00,,,0.00,,2013-02-14 07:21:00,
2013-02-14 00:31:00,29.0,9.0,30.05,NW,317,9.0,40.0,43,0.00,,,0.00,,2013-02-14 07:31:00,
2013-02-14 00:41:00,29.0,9.0,30.05,NW,317,9.0,40.0,43,0.00,,,0.00,,2013-02-14 07:41:00,
2013-02-14 00:52:00,29.0,9.0,30.05,NNW,338,17.0,41.0,43,0.00,,,0.00,,2013-02-14 07:52:00,
2013-02-14 01:01:00,28.0,9.0,30.05,WNW,295,9.0,20.0,44,0.00,,,0.00,,2013-02-14 08:01:00,
2013-02-14 01:11:00,28.0,9.0,30.05,WNW,295,9.0,20.0,44,0.00,,,0.00,,2013-02-14 08:11:00,
2013-02-14 01:21:00,28.0,9.0,30.06,NW,316,7.0,18.0,44,0.00,,,0.00,,2013-02-14 08:21:00,
2013-02-14 01:32:00,28.0,9.0,30.06,WNW,300,7.0,27.0,44,0.00,,,0.00,,2013-02-14 08:32:00,
2013-02-14 01:43:00,28.0,9.0,30.06,WNW,300,7.0,27.0,44,0.00,,,0.00,,2013-02-14 08:43:00,
2013-02-14 01:52:00,28.0,9.0,30.06,NW,322,13.0,22.0,45,0.00,,,0.00,,2013-02-14 08:52:00,
2013-02-14 02:01:00,28.0,9.0,30.07,NW,309,5.0,16.0,45,0.00,,,0.00,,2013-02-14 09:01:00,
2013-02-14 02:11:00,28.0,9.0,30.07,NW,309,5.0,16.0,45,0.00,,,0.00,,2013-02-14 09:11:00,
2013-02-14 02:21:00,28.0,10.0,30.06,NNW,328,12.0,19.0,47,0.00,,,0.00,,2013-02-14 09:21:00,
2013-02-14 02:31:00,28.0,10.0,30.05,ESE,116,7.0,16.0,46,0.00,,,0.00,,2013-02-14 09:31:00,
2013-02-14 02:42:00,28.0,10.0,30.05,ESE,116,7.0,16.0,46,0.00,,,0.00,,2013-02-14 09:42:00,
2013-02-14 02:52:00,27.0,9.0,30.05,NE,41,3.0,19.0,47,0.00,,,0.00,,2013-02-14 09:52:00,
2013-02-14 03:02:00,27.0,10.0,30.04,West,281,1.0,6.0,48,0.00,,,0.00,,2013-02-14 10:02:00,
2013-02-14 03:11:00,27.0,10.0,30.03,WNW,295,8.0,16.0,49,0.00,,,0.00,,2013-02-14 10:11:00,
2013-02-14 03:21:00,27.0,10.0,30.03,WNW,295,8.0,16.0,49,0.00,,,0.00,,2013-02-14 10:21:00,
2013-02-14 03:31:00,27.0,11.0,30.02,WNW,302,12.0,23.0,50,0.00,,,0.00,,2013-02-14 10:31:00,
2013-02-14 03:42:00,27.0,11.0,30.02,WNW,302,12.0,23.0,50,0.00,,,0.00,,2013-02-14 10:42:00,
2013-02-14 03:52:00,26.0,11.0,30.02,WNW,299,7.0,17.0,52,0.00,,,0.00,,2013-02-14 10:52:00,
2013-02-14 04:01:00,26.0,11.0,30.01,WNW,285,10.0,29.0,52,0.00,,,0.00,,2013-02-14 11:01:00,
2013-02-14 04:11:00,26.0,11.0,30.01,WNW,285,10.0,29.0,52,0.00,,,0.00,,2013-02-14 11:11:00,
2013-02-14 04:21:00,26.0,11.0,30.01,WNW,285,10.0,29.0,52,0.00,,,0.00,,2013-02-14 11:21:00,
2013-02-14 04:32:00,26.0,10.0,30.03,South,177,8.0,22.0,50,0.00,,,0.00,,2013-02-14 11:32:00,
2013-02-14 04:42:00,26.0,10.0,30.03,South,177,8.0,22.0,50,0.00,,,0.00,,2013-02-14 11:42:00,
2013-02-14 04:52:00,26.0,10.0,30.03,West,273,15.0,24.0,51,0.00,,,0.00,,2013-02-14 11:52:00,
2013-02-14 05:02:00,25.0,11.0,30.03,WNW,288,11.0,25.0,54,0.00,,,0.00,,2013-02-14 12:02:00,
2013-02-14 05:11:00,25.0,11.0,30.03,WNW,288,11.0,25.0,54,0.00,,,0.00,,2013-02-14 12:11:00,
2013-02-14 05:22:00,25.0,11.0,30.03,WSW,246,2.0,23.0,54,0.00,,,0.00,,2013-02-14 12:22:00,
2013-02-14 05:32:00,25.0,11.0,30.03,WNW,282,2.0,9.0,54,0.00,,,0.00,,2013-02-14 12:32:00,
2013-02-14 05:42:00,25.0,11.0,30.03,WNW,282,2.0,9.0,54,0.00,,,0.00,,2013-02-14 12:42:00,
2013-02-14 05:53:00,24.0,11.0,30.03,ESE,123,0.0,3.0,57,0.00,,,0.00,,2013-02-14 12:53:00,
2013-02-14 06:01:00,23.0,10.0,30.04,WNW,293,1.0,9.0,58,0.00,,,0.00,,2013-02-14 13:01:00,
2013-02-14 06:11:00,23.0,10.0,30.04,WNW,293,1.0,9.0,58,0.00,,,0.00,,2013-02-14 13:11:00,
2013-02-14 06:21:00,24.0,11.0,30.03,West,276,3.0,9.0,58,0.00,,,0.00,,2013-02-14 13:21:00,
2013-02-14 06:31:00,24.0,11.0,30.03,WNW,283,2.0,11.0,56,0.00,,,0.00,,2013-02-14 13:31:00,
2013-02-14 06:41:00,24.0,11.0,30.03,WNW,283,2.0,11.0,56,0.00,,,0.00,,2013-02-14 13:41:00,
2013-02-14 06:52:00,24.0,10.0,30.04,WNW,301,5.0,20.0,55,0.00,,,0.00,,2013-02-14 13:52:00,
2013-02-14 07:01:00,24.0,11.0,30.05,NW,319,4.0,13.0,58,0.00,,,0.00,,2013-02-14 14:01:00,
2013-02-14 07:11:00,24.0,11.0,30.05,NW,319,4.0,13.0,58,0.00,,,0.00,,2013-02-14 14:11:00,
2013-02-14 07:21:00,24.0,12.0,30.06,NW,326,6.0,13.0,59,0.00,,,0.00,,2013-02-14 14:21:00,
2013-02-14 07:31:00,24.0,12.0,30.06,NNE,15,4.0,19.0,60,0.00,,,0.00,,2013-02-14 14:31:00,
2013-02-14 07:41:00,24.0,12.0,30.06,NNE,15,4.0,19.0,60,0.00,,,0.00,,2013-02-14 14:41:00,
2013-02-14 07:52:00,24.0,11.0,30.07,NNW,329,6.0,20.0,56,0.00,,,0.00,,2013-02-14 14:52:00,
2013-02-14 08:01:00,25.0,11.0,30.08,WNW,297,10.0,19.0,55,0.00,,,0.00,,2013-02-14 15:01:00,
2013-02-14 08:11:00,25.0,11.0,30.08,WNW,297,10.0,19.0,55,0.00,,,0.00,,2013-02-14 15:11:00,
2013-02-14 08:21:00,25.0,11.0,30.08,West,278,7.0,17.0,55,0.00,,,0.00,,2013-02-14 15:21:00,
2013-02-14 08:31:00,25.0,10.0,30.09,NW,304,7.0,26.0,53,0.00,,,0.00,,2013-02-14 15:31:00,
2013-02-14 08:41:00,25.0,10.0,30.09,NW,304,7.0,26.0,53,0.00,,,0.00,,2013-02-14 15:41:00,
2013-02-14 08:52:00,26.0,11.0,30.09,WNW,290,10.0,23.0,52,0.00,,,0.00,,2013-02-14 15:52:00,
2013-02-14 09:01:00,27.0,10.0,30.10,WNW,302,9.0,17.0,49,0.00,,,0.00,,2013-02-14 16:01:00,
2013-02-14 09:11:00,27.0,10.0,30.10,WNW,302,9.0,17.0,49,0.00,,,0.00,,2013-02-14 16:11:00,
2013-02-14 09:21:00,27.0,11.0,30.11,WNW,287,8.0,18.0,51,0.00,,,0.00,,2013-02-14 16:21:00,
2013-02-14 09:32:00,27.0,10.0,30.11,NW,311,10.0,25.0,49,0.00,,,0.00,,2013-02-14 16:32:00,
2013-02-14 09:41:00,27.0,10.0,30.11,NW,311,10.0,25.0,49,0.00,,,0.00,,2013-02-14 16:41:00,
2013-02-14 09:52:00,29.0,11.0,30.11,NNW,346,8.0,22.0,47,0.00,,,0.00,,2013-02-14 16:52:00,
2013-02-14 10:01:00,29.0,10.0,30.12,WNW,297,10.0,19.0,45,0.00,,,0.00,,2013-02-14 17:01:00,
2013-02-14 10:11:00,29.0,10.0,30.12,WNW,297,10.0,19.0,45,0.00,,,0.00,,2013-02-14 17:11:00,
2013-02-14 10:21:00,29.0,10.0,30.12,NW,312,10.0,18.0,44,0.00,,,0.00,,2013-02-14 17:21:00,
2013-02-14 10:31:00,28.0,10.0,30.13,ENE,61,4.0,9.0,47,0.00,,,0.00,,2013-02-14 17:31:00,
2013-02-14 10:42:00,28.0,10.0,30.13,ENE,61,4.0,9.0,47,0.00,,,0.00,,2013-02-14 17:42:00,
2013-02-14 10:52:00,27.0,12.0,30.14,NNW,340,1.0,10.0,52,0.00,,,0.00,,2013-02-14 17:52:00,
2013-02-14 11:01:00,26.0,14.0,30.15,West,279,5.0,11.0,60,0.00,,,0.00,,2013-02-14 18:01:00,
2013-02-14 11:11:00,26.0,14.0,30.15,West,279,5.0,11.0,60,0.00,,,0.00,,2013-02-14 18:11:00,
2013-02-14 11:23:00,22.0,16.0,30.18,SE,126,6.0,15.0,78,0.00,,,0.00,,2013-02-14 18:23:00,
2013-02-14 11:32:00,18.0,14.0,30.19,ENE,61,7.0,14.0,84,0.00,,,0.00,,2013-02-14 18:32:00,
2013-02-14 12:02:00,17.0,14.0,30.19,NNE,22,4.0,13.0,87,0.00,,,0.00,,2013-02-14 19:02:00,
2013-02-14 12:21:00,17.0,14.0,30.20,ENE,61,6.0,10.0,86,0.00,,,0.00,,2013-02-14 19:21:00,
2013-02-14 12:31:00,18.0,15.0,30.19,NNE,13,1.0,8.0,87,0.00,,,0.00,,2013-02-14 19:31:00,
2013-02-14 12:41:00,18.0,15.0,30.19,NNE,13,1.0,8.0,87,0.00,,,0.00,,2013-02-14 19:41:00,
2013-02-14 12:52:00,19.0,15.0,30.19,NW,313,0.0,6.0,84,0.00,,,0.00,,2013-02-14 19:52:00,
2013-02-14 13:01:00,19.0,14.0,30.18,North,8,3.0,7.0,82,0.00,,,0.00,,2013-02-14 20:01:00,
2013-02-14 13:11:00,19.0,14.0,30.19,WSW,256,4.0,8.0,81,0.00,,,0.00,,2013-02-14 20:11:00,
2013-02-14 13:21:00,19.0,14.0,30.19,WSW,256,4.0,8.0,81,0.00,,,0.00,,2013-02-14 20:21:00,
2013-02-14 13:31:00,18.0,13.0,30.19,East,96,3.0,7.0,82,0.00,,,0.00,,2013-02-14 20:31:00,
2013-02-14 13:41:00,18.0,13.0,30.19,East,96,3.0,7.0,82,0.00,,,0.00,,2013-02-14 20:41:00,
2013-02-14 13:52:00,17.0,13.0,30.19,ENE,58,4.0,11.0,83,0.00,,,0.00,,2013-02-14 20:52:00,
2013-02-14 14:02:00,16.0,12.0,30.20,ENE,72,2.0,8.0,83,0.00,,,0.00,,2013-02-14 21:02:00,
2013-02-14 14:11:00,16.0,12.0,30.20,ENE,72,2.0,8.0,83,0.00,,,0.00,,2013-02-14 21:11:00,
2013-02-14 14:21:00,17.0,13.0,30.20,NE,39,2.0,8.0,84,0.00,,,0.00,,2013-02-14 21:21:00,
2013-02-14 14:31:00,17.0,13.0,30.21,NNE,18,0.0,5.0,85,0.00,,,0.00,,2013-02-14 21:31:00,
2013-02-14 14:42:00,17.0,13.0,30.21,NNE,18,0.0,5.0,85,0.00,,,0.00,,2013-02-14 21:42:00,
2013-02-14 14:52:00,17.0,13.0,30.22,NE,53,2.0,6.0,84,0.00,,,0.00,,2013-02-14 21:52:00,
2013-02-14 15:02:00,16.0,11.0,30.23,East,88,0.0,6.0,82,0.00,,,0.00,,2013-02-14 22:02:00,
2013-02-14 15:11:00,16.0,11.0,30.23,East,88,0.0,6.0,82,0.00,,,0.00,,2013-02-14 22:11:00,
2013-02-14 15:21:00,16.0,12.0,30.23,East,91,1.0,4.0,83,0.00,,,0.00,,2013-02-14 22:21:00,
2013-02-14 15:31:00,16.0,12.0,30.24,SE,135,0.0,9.0,84,0.00,,,0.00,,2013-02-14 22:31:00,
2013-02-14 15:42:00,16.0,12.0,30.24,SE,135,0.0,9.0,84,0.00,,,0.00,,2013-02-14 22:42:00,
2013-02-14 15:52:00,16.0,12.0,30.24,ESE,103,1.0,6.0,84,0.00,,,0.00,,2013-02-14 22:52:00,
2013-02-14 16:01:00,16.0,12.0,30.24,ESE,103,1.0,6.0,84,0.00,,,0.00,,2013-02-14 23:01:00,
2013-02-14 16:11:00,16.0,12.0,30.24,ESE,103,1.0,6.0,84,0.00,,,0.00,,2013-02-14 23:11:00,
2013-02-14 16:21:00,16.0,12.0,30.25,South,179,1.0,7.0,85,0.00,,,0.00,,2013-02-14 23:21:00,
2013-02-14 16:31:00,16.0,12.0,30.25,SSE,147,4.0,7.0,83,0.00,,,0.00,,2013-02-14 23:31:00,
2013-02-14 16:42:00,16.0,12.0,30.25,SSE,147,4.0,7.0,83,0.00,,,0.00,,2013-02-14 23:42:00,
2013-02-14 16:52:00,16.0,12.0,30.25,SSE,147,4.0,7.0,83,0.00,,,0.00,,2013-02-14 23:52:00,
2013-02-14 17:01:00,15.0,12.0,30.25,SE,139,2.0,7.0,86,0.00,,,0.00,,2013-02-15 00:01:00,
2013-02-14 17:11:00,15.0,12.0,30.25,SE,139,2.0,7.0,86,0.00,,,0.00,,2013-02-15 00:11:00,
2013-02-14 17:22:00,15.0,12.0,30.25,SE,139,1.0,6.0,87,0.00,,,0.00,,2013-02-15 00:22:00,
2013-02-14 17:32:00,14.0,11.0,30.25,SSE,149,2.0,5.0,88,0.00,,,0.00,,2013-02-15 00:32:00,
2013-02-14 17:42:00,14.0,11.0,30.25,SSE,149,2.0,5.0,88,0.00,,,0.00,,2013-02-15 00:42:00,
2013-02-14 17:52:00,14.0,11.0,30.25,ESE,117,2.0,7.0,88,0.00,,,0.00,,2013-02-15 00:52:00,
2013-02-14 18:02:00,14.0,11.0,30.26,ESE,118,2.0,9.0,89,0.00,,,0.00,,2013-02-15 01:02:00,
2013-02-14 18:11:00,14.0,11.0,30.26,ESE,118,2.0,9.0,89,0.00,,,0.00,,2013-02-15 01:11:00,
2013-02-14 18:21:00,14.0,11.0,30.27,SE,131,2.0,6.0,89,0.00,,,0.00,,2013-02-15 01:21:00,
2013-02-14 18:31:00,13.0,10.0,30.27,ESE,122,2.0,7.0,89,0.00,,,0.00,,2013-02-15 01:31:00,
2013-02-14 18:41:00,13.0,10.0,30.27,ESE,122,2.0,7.0,89,0.00,,,0.00,,2013-02-15 01:41:00,
2013-02-14 18:52:00,13.0,10.0,30.27,South,175,5.0,11.0,89,0.00,,,0.00,,2013-02-15 01:52:00,
2013-02-14 19:01:00,13.0,10.0,30.28,ENE,77,3.0,7.0,89,0.00,,,0.00,,2013-02-15 02:01:00,
2013-02-14 19:11:00,13.0,10.0,30.28,ENE,77,3.0,7.0,89,0.00,,,0.00,,2013-02-15 02:11:00,
2013-02-14 19:21:00,13.0,10.0,30.29,SE,143,2.0,8.0,89,0.00,,,0.00,,2013-02-15 02:21:00,
2013-02-14 19:31:00,13.0,10.0,30.29,East,82,3.0,7.0,89,0.00,,,0.00,,2013-02-15 02:31:00,
2013-02-14 19:41:00,13.0,10.0,30.29,East,82,3.0,7.0,89,0.00,,,0.00,,2013-02-15 02:41:00,
2013-02-14 19:52:00,13.0,10.0,30.29,SSE,166,1.0,7.0,89,0.00,,,0.00,,2013-02-15 02:52:00,
2013-02-14 20:02:00,12.0,9.0,30.29,SE,126,2.0,6.0,89,0.00,,,0.00,,2013-02-15 03:02:00,
2013-02-14 20:11:00,12.0,9.0,30.29,SE,126,2.0,6.0,89,0.00,,,0.00,,2013-02-15 03:11:00,
2013-02-14 20:22:00,12.0,9.0,30.30,ESE,115,1.0,6.0,89,0.00,,,0.00,,2013-02-15 03:22:00,
2013-02-14 20:32:00,12.0,9.0,30.30,East,94,2.0,7.0,89,0.00,,,0.00,,2013-02-15 03:32:00,
2013-02-14 20:42:00,12.0,9.0,30.30,East,94,2.0,7.0,89,0.00,,,0.00,,2013-02-15 03:42:00,
2013-02-14 20:52:00,12.0,9.0,30.30,SE,145,1.0,5.0,89,0.00,,,0.00,,2013-02-15 03:52:00,
2013-02-14 21:01:00,12.0,9.0,30.30,SE,137,0.0,4.0,89,0.00,,,0.00,,2013-02-15 04:01:00,
2013-02-14 21:11:00,12.0,9.0,30.30,SE,137,0.0,4.0,89,0.00,,,0.00,,2013-02-15 04:11:00,
2013-02-14 21:21:00,12.0,9.0,30.30,ESE,104,2.0,4.0,89,0.00,,,0.00,,2013-02-15 04:21:00,
2013-02-14 21:32:00,12.0,9.0,30.30,ENE,70,1.0,5.0,89,0.00,,,0.00,,2013-02-15 04:32:00,
2013-02-14 21:42:00,12.0,9.0,30.30,ENE,70,1.0,5.0,89,0.00,,,0.00,,2013-02-15 04:42:00,
2013-02-14 21:52:00,12.0,9.0,30.30,SSE,151,1.0,3.0,89,0.00,,,0.00,,2013-02-15 04:52:00,
2013-02-14 22:02:00,12.0,9.0,30.29,SE,142,0.0,2.0,88,0.00,,,0.00,,2013-02-15 05:02:00,
2013-02-14 22:12:00,12.0,9.0,30.29,SE,142,0.0,2.0,88,0.00,,,0.00,,2013-02-15 05:12:00,
2013-02-14 22:22:00,11.0,8.0,30.28,SSE,158,0.0,5.0,88,0.00,,,0.00,,2013-02-15 05:22:00,
2013-02-14 22:32:00,11.0,8.0,30.28,SE,127,1.0,3.0,89,0.00,,,0.00,,2013-02-15 05:32:00,
2013-02-14 22:41:00,11.0,8.0,30.28,SE,127,1.0,3.0,89,0.00,,,0.00,,2013-02-15 05:41:00,
2013-02-14 22:52:00,11.0,8.0,30.29,ENE,70,0.0,3.0,89,0.00,,,0.00,,2013-02-15 05:52:00,
2013-02-14 23:02:00,11.0,8.0,30.30,SE,138,0.0,1.0,89,0.00,,,0.00,,2013-02-15 06:02:00,
2013-02-14 23:11:00,11.0,8.0,30.30,SE,138,0.0,1.0,89,0.00,,,0.00,,2013-02-15 06:11:00,
2013-02-14 23:21:00,10.0,7.0,30.29,WNW,300,0.0,1.0,88,0.00,,,0.00,,2013-02-15 06:21:00,
2013-02-14 23:31:00,10.0,7.0,30.30,WNW,300,3.0,4.0,87,0.00,,,0.00,,2013-02-15 06:31:00,
2013-02-14 23:42:00,10.0,7.0,30.30,WNW,300,3.0,4.0,87,0.00,,,0.00,,2013-02-15 06:42:00,
2013-02-14 23:52:00,10.0,7.0,30.31,NW,313,0.0,2.0,88,0.00,,,0.00,,2013-02-15 06:52:00,